Regional Weather Roundup
Issued by NWS Green Bay, WI

Home | Current Version | Previous Version | Graphics & Text | Print | Product List | Glossary Off
Versions: 1 2 3 4 5 6 7 8 9 10 11 12 13 14 15 16 17 18 19 20 21 22 23 24 25 26 27 28 29 30 31 32 33 34 35 36 37 38 39 40 41 42 43 44 45 46 47 48 49 50

000
ASUS43 KGRB 242100
RWRGRB

NORTH-CENTRAL AND NORTHEAST WISCONSIN REGIONAL WEATHER ROUNDUP
NATIONAL WEATHER SERVICE GREEN BAY WI
300 PM CST SAT FEB 24 2018

WIZ005-009-010>012-018-019-242200-
NORTH CENTRAL WISCONSIN

CITY           SKY/WX    TMP DP  RH WIND       PRES   REMARKS
IRONWOOD       FAIR      34  16  47 E13       29.96F
MANITOWISH WTR NOT AVBL
ARBOR VITAE    NOT AVBL
EAGLE RIVER    FAIR      35  20  55 SE8       29.95F
LAND O LAKES   PTSUNNY   35  22  57 SE8       29.98S
RHINELANDER    CLOUDY    34  24  67 E13       29.93F
PHILLIPS       CLOUDY    33  22  64 E9        29.89F
ANTIGO         NOT AVBL
TOMAHAWK       NOT AVBL
MERRILL        CLOUDY    36  23  60 SE13G21   29.91F
$$

WIZ013-073-242200-
NORTHEAST WISCONSIN

CITY           SKY/WX    TMP DP  RH WIND       PRES   REMARKS
IRON MOUNTAIN  PTSUNNY   36  20  52 SE10      30.00F
MARINETTE      FAIR      34  25  69 E13       30.04F
$$

WIZ017-030-035>037-045-242200-
CENTRAL WISCONSIN

CITY           SKY/WX    TMP DP  RH WIND       PRES   REMARKS
MEDFORD        NOT AVBL
WAUSAU         CLOUDY    33  24  69 E15       29.90F
MOSINEE        CLOUDY    34  25  69 E15G23    29.91F
MARSHFIELD     CLOUDY    33  25  72 E18G24    29.87F
WISC RAPIDS    CLOUDY    34  24  67 SE16G26   29.91F
STEVENS POINT  NOT AVBL
WAUPACA        NOT AVBL
SHAWANO        NOT AVBL
CLINTONVILLE   CLOUDY    35  26  68 E10       30.00S
WAUTOMA        CLOUDY    34  26  72 E14G25    29.92F
$$

WIZ038-039-048-051-242200-
FOX VALLEY

CITY           SKY/WX    TMP DP  RH WIND       PRES   REMARKS
NWS GREEN BAY  CLOUDY    35  26  69 E14G20    30.01F
APPLETON       CLOUDY    34  23  64 E12       29.96
OSHKOSH        CLOUDY    34  28  79 E13       29.95F
FOND DU LAC    CLOUDY    35  27  72 E14       29.97F
$$

WIZ022-050-052-242200-
EAST CENTRAL WISCONSIN

CITY           SKY/WX    TMP DP  RH WIND       PRES   REMARKS
EPHRAIM        NOT AVBL
WASHINGTON ISL NOT AVBL
STURGEON BAY   FAIR      33  25  72 NE12      30.03F
MANITOWOC      CLOUDY    34  27  75 E9        30.01F
SHEBOYGAN      CLOUDY    34  29  82 E10       29.99F
$$

LMZ563-521-522-541>543-242200-
LAKESHORE

STATION/POSITION TIME  TEMP    WIND        PRES    VSBY  WAVE
                       AIR SEA DIR/SP/G                  HT/PER
                 (UTC) (F)     (DEG/KT/KT) (MB)    (MI)  (FT/S)
SHEBOYGAN LKSHOR 2000   33      70/ 12/ 13 1017.6F
KEWAUNEE LKSHORE 2030   34      80/  8/ 11 1016.5F
NORTHPORT PIER   2040   32                 1018.3F
SISTER BAY LKSHO 2020   37      80/  8/ 13   N/A
MENOMINEE LKSHOR 2030   33      80/ 11/ 12 1017.5F
$$




USA.gov is the U.S. government's official web portal to all federal, state and local government web resources and services.